Location: Albany
(35.0000°S, 118.0000°E)
Time: 14:46:58
(UTC-04:00)

JAS-1B - Visible Passes

Search period start: 28 September 2016 00:00
Search period end: 08 October 2016 00:00
Orbit: 912 x 1743 km, 99.0° (Epoch: 28 September)

Date Brightness Start Highest point End Pass type
(mag) Time Alt. Az. Time Alt. Az. Time Alt. Az.
28 Sep 10.2 06:31:36 10° NW 06:35:50 17° W 06:39:46 10° SW visible
28 Sep 10.0 16:26:02 10° SE 16:30:21 18° E 16:35:04 10° NE visible
29 Sep 10.7 06:53:48 10° WNW 06:55:00 10° W 06:56:10 10° W visible
29 Sep 9.5 16:44:04 10° SE 16:49:27 27° E 16:55:31 10° NNE visible
30 Sep 9.0 17:02:30 10° SSE 17:08:31 39° E 17:15:28 10° NNE visible
03 Oct 10.2 16:10:53 10° ESE 16:14:43 15° E 16:18:51 10° NE visible
04 Oct 10.3 06:36:21 10° WNW 06:39:14 13° W 06:42:01 10° WSW visible
04 Oct 9.9 16:28:36 10° SE 16:33:51 23° E 16:39:44 10° NE visible
05 Oct 9.3 16:46:52 10° SE 16:52:57 33° E 16:59:55 10° NNE visible
06 Oct 8.8 17:05:26 10° SSE 17:12:00 47° E 17:19:41 10° N visible
